Location: *
(6.0000°S, 32.3997°W)
Time: 15:12:43
(UTC+00:00)

GPS 2-12 Rocket1 - Pass Details

Date: 01 April 2020
Orbit: 586 x 652 km, 20.0° (Epoch: 26 May)

Event Time Altitude Azimuth Distance (km) Brightness Sun altitude
Rises 20:50:29 0° 237° (WSW) 2,941 7.5 -9.8°
Reaches altitude 10° 20:53:09 10° 225° (SW) 2,022 6.3 -10.4°
Maximum altitude 20:57:15 28° 165° (SSE) 1,174 4.3 -11.4°
Enters shadow 21:00:12 16° 115° (ESE) 1,655 4.7 -12.2°
